Volver al catálogo

STARLINK-1212

ActivoComunicacionesVLEO
NORAD 45223·PAYLOAD·🇺🇸 United States

Lanzado Feb 17, 2020 desde Cape Canaveral Space Force Station

Loading…

Próximos Pases (próximas 24 horas)

TLE

ActualizadoSource: CelesTrak SupGP

Época: Sep 14, 2026, 21:12 UTC

1 45223C 20012AX  26257.88381944  .00074662  00000+0  33537-3 0  2573
2 45223  53.0346 136.9493 0004596 118.4415 305.6986 15.83348365    16

Sigue STARLINK-1212 en tiempo real con AllMySat

Download on the App Store